{"data":{"norad_id":51624,"intl_designator":"2022-012C","name":"ONEWEB-0415","alt_names":[],"object_type":"PAYLOAD","status":"ACTIVE","operator":null,"country":"UK","launch_date":"2022-02-10","launch_site_code":"FRGUI","launch_vehicle":null,"mission":null,"orbit_class":"UNKNOWN","rcs_meters":null,"size_class":null,"mass_kg":null,"dimensions":null,"purposes":["comms"],"wikipedia_slug":null,"has_3d_model":false,"image_url":null,"decayed_at":null,"tle_current":{"epoch":"2026-09-20T01:48:03.010176Z","epoch_age_seconds":63828,"freshness":"FRESH","line1":"1 51624U 22012C   26263.07503484  .00000627  00000+0  17591-2 0  9994","line2":"2 51624  87.8913  17.3787 0001447 109.1556 250.9728 13.10373193221719","mean_motion":13.10373193,"eccentricity":0.0001447,"inclination_deg":87.8913,"raan_deg":17.3787,"arg_perigee_deg":109.1556,"mean_anomaly_deg":250.9728,"bstar":0.0017591,"rev_number":22171,"period_min":109.89235797042,"perigee_km":1220.6159982848,"apogee_km":1222.8153956553,"semimajor_km":7599.85269697,"source":"CELESTRAK","updated_at":"2026-09-20T09:00:44.707937Z"}}}